Temperature
17 18 18 19 21 22 22 23 23 23 23 23 22 23 25 25 25 24 20 20 21 20 18 17 16 15 15 15 15 15 15 15 15 14 13 13 13 12 12 12 12 13 13 12 12 13 13 13 12
17 17 18 20 21 22 22 23 22 23 22 21 22 22 24 24 22 20 20 21 20 19 18 17 16 15 15 15 15 15 15 15 15 14 13 13 13 12 12 12 13 13 13 13 13 12 12 12 12
17 17 19 21 21 22 22 23 23 22 21 21 23 23 23 23 21 20 19 21 20 19 18 17 16 15 15 15 15 15 15 15 14 14 13 13 13 12 12 12 13 13 13 13 13 13 12 12 12
16 17 19 21 21 22 22 23 22 22 22 22 22 23 22 20 20 19 20 20 19 19 17 17 16 15 15 15 15 15 15 15 15 14 13 13 13 12 12 12 12 13 13 13 13 12 12 12 12
16 19 20 20 21 22 22 21 20 22 23 22 22 23 23 20 20 20 20 20 19 18 17 17 16 15 15 15 15 15 15 15 15 14 13 13 12 12 12 12 12 13 13 13 13 12 12 12 13
17 19 19 20 21 21 21 20 20 22 22 22 22 23 23 20 20 20 20 19 18 18 18 17 16 15 14 14 15 15 15 15 15 14 13 13 12 12 13 13 12 13 13 13 13 13 13 13 13
17 19 19 20 21 21 21 20 21 22 22 22 22 23 23 20 20 20 19 19 18 18 17 16 16 15 14 14 14 14 15 15 15 14 14 13 13 12 13 13 13 13 13 13 13 13 13 13 13
16 19 19 19 20 20 20 19 20 20 22 21 21 23 23 20 20 19 19 19 18 18 17 16 15 15 14 14 14 14 14 14 14 14 14 13 13 13 13 12 13 13 13 13 13 13 13 13 13
14 17 18 19 19 20 19 19 20 19 20 20 20 21 19 19 19 19 18 18 18 18 18 17 16 15 15 14 14 14 14 14 14 14 14 14 12 12 12 12 13 13 13 13 13 13 12 12 12
15 16 18 19 19 19 18 19 19 19 20 20 20 19 19 19 18 18 18 18 18 18 18 18 17 16 15 14 14 14 13 14 13 13 14 13 12 12 12 13 13 13 13 12 12 12 12 12 12
15 16 17 16 16 17 17 17 17 18 20 20 20 20 18 18 18 18 18 18 18 18 18 18 17 17 16 15 14 14 14 14 13 13 13 13 13 13 13 12 12 12 12 12 12 12 12 12 12
14 15 14 15 14 15 16 17 17 17 18 19 18 17 17 18 18 18 18 18 18 18 18 18 18 17 17 16 15 14 14 14 14 14 13 13 13 13 12 12 12 12 12 12 11 12 12 12 12
14 14 13 13 13 13 14 15 15 16 16 17 17 17 17 18 18 18 18 18 18 18 18 18 18 18 18 17 16 15 14 14 14 14 13 13 13 12 12 12 12 11 11 11 11 11 12 12 12
13 13 13 12 13 13 14 14 15 15 15 15 16 16 17 18 18 18 18 18 18 18 18 19 19 18 18 18 17 16 15 14 14 13 13 13 12 12 12 12 12 12 11 11 11 12 12 12 11
11 12 13 13 13 14 13 14 15 15 15 15 16 16 17 17 17 18 18 18 18 18 18 18 19 19 18 18 17 16 15 14 14 13 13 13 13 12 12 12 12 11 11 11 11 12 11 11 11
12 12 13 14 13 13 13 14 17 15 15 15 15 16 16 16 17 17 18 18 18 18 18 18 19 19 19 18 17 16 15 14 14 13 13 13 13 12 12 12 12 11 11 11 11 11 11 11 11
11 12 13 13 13 13 13 14 16 14 14 15 15 15 16 16 16 17 17 17 17 18 18 18 19 19 19 18 17 16 15 14 14 13 13 13 13 13 12 12 12 12 11 11 11 11 11 11 10
12 12 12 12 13 13 13 13 15 14 14 14 15 15 15 15 15 16 16 16 17 17 18 18 19 19 18 18 17 15 14 14 14 13 13 13 13 13 12 12 12 11 11 11 11 11 11 10 10
11 11 12 12 13 12 12 13 14 14 14 14 14 14 15 15 15 15 15 15 16 17 17 18 18 18 18 18 17 16 15 14 13 13 13 13 13 12 12 12 11 11 11 11 11 11 10 10 9
10 10 10 11 12 11 11 12 13 14 14 14 14 14 15 15 15 15 15 15 15 16 17 18 18 18 18 18 17 15 15 14 14 13 13 13 12 12 12 11 11 11 11 11 10 10 9 9 8
9 9 10 10 11 11 10 12 15 16 15 14 14 14 14 15 15 16 16 16 15 16 16 17 18 18 17 17 16 16 15 14 13 13 13 12 12 11 11 11 11 11 10 10 10 9 8 8 7
9 10 9 9 9 9 10 10 14 15 14 14 14 14 14 15 15 15 15 16 15 16 16 17 17 17 17 16 16 16 14 13 13 12 12 12 11 11 10 10 10 10 10 10 9 8 8 7 6
9 9 9 9 9 8 9 8 12 15 14 14 15 15 15 15 15 14 14 15 15 15 16 16 17 16 16 16 15 14 13 12 12 12 12 11 10 10 10 10 10 10 9 9 8 7 7 6 5
9 8 8 8 7 7 11 10 12 16 15 15 16 15 15 15 14 14 14 14 14 14 15 16 16 16 16 15 14 13 13 13 12 12 11 11 10 10 10 10 9 9 9 8 7 6 6 5 4
8 7 8 8 7 9 12 11 12 15 15 15 15 15 15 14 14 14 13 13 13 13 14 15 15 16 15 14 13 12 12 12 12 12 11 11 10 10 9 9 9 8 8 7 6 6 5 4 4
8 8 8 9 10 12 11 10 13 15 14 14 14 14 13 13 13 13 13 13 13 13 14 15 15 15 14 13 12 12 12 12 12 12 11 10 10 9 9 9 8 8 7 6 5 5 4 4 3
7 7 9 8 8 8 10 12 14 14 13 14 14 13 13 13 12 12 12 12 12 12 13 14 14 14 13 12 12 11 11 12 11 11 10 10 9 9 8 8 7 7 6 5 4 4 3 3 2
9 8 7 6 7 8 11 12 13 14 14 14 14 13 13 12 12 12 11 11 10 10 11 11 12 12 12 12 11 11 11 11 10 10 9 9 9 8 8 7 6 6 5 4 4 3 3 2 2
7 6 6 7 8 8 9 12 15 14 14 14 14 13 12 12 11 11 10 10 9 8 8 8 9 10 11 11 11 11 10 10 9 9 9 8 8 8 7 6 6 5 4 3 3 3 2 2 1
9 8 7 6 7 7 8 11 14 14 13 13 13 12 11 10 10 9 9 8 7 6 6 7 8 10 10 11 10 10 10 9 8 8 8 8 7 7 6 5 5 4 3 3 2 2 1 1 0
Wind_Speed
10 7 4 3 4 6 7 4 3 2 2 2 4 5 5 3 3 1 4 9 8 15 17 19 19 18 17 15 14 12 10 9 10 11 12 12 10 9 9 7 7 6 7 8 10 11 11 10 9
7 4 3 4 6 9 7 6 6 2 3 5 4 5 5 3 2 3 7 9 10 15 17 18 19 18 17 15 13 12 10 10 10 12 12 11 10 9 8 7 7 7 7 8 8 9 9 8 7
3 3 3 5 8 10 5 6 5 1 4 3 2 3 3 0 2 3 6 11 11 15 16 18 20 18 17 15 13 12 10 10 11 12 12 10 9 8 7 7 7 7 7 7 7 7 7 6 5
4 4 5 9 15 11 5 5 3 3 2 2 4 3 1 2 2 3 8 12 12 15 16 18 19 18 17 15 13 12 10 10 11 11 11 9 7 6 6 7 7 7 7 6 6 5 4 4 3
5 6 9 14 18 11 9 5 4 5 4 3 4 3 2 4 3 5 10 11 12 15 15 18 19 18 17 15 14 12 11 10 10 10 9 7 5 3 4 6 7 6 5 4 4 4 4 3 3
7 7 12 17 18 12 10 8 7 7 5 4 4 4 2 4 5 7 10 10 12 14 14 17 19 19 18 16 15 13 12 11 10 9 8 6 3 1 1 7 8 6 4 2 3 4 4 3 3
9 10 16 18 17 15 11 8 10 9 8 5 3 4 3 5 5 8 10 10 11 13 13 14 17 17 18 17 16 14 13 11 10 9 7 4 3 3 2 8 8 5 2 1 2 3 4 4 4
7 7 14 16 17 15 9 7 7 9 9 3 4 6 3 3 6 9 9 9 10 11 13 13 14 15 15 16 16 15 13 12 10 8 7 6 5 4 5 7 6 3 1 2 3 4 5 5 5
5 10 15 15 13 11 8 9 7 4 6 5 5 3 3 3 7 9 9 9 10 10 12 13 13 13 13 13 15 15 14 12 11 10 9 7 6 5 5 6 5 3 3 4 4 5 5 3 6
9 12 16 9 9 7 7 7 6 6 9 9 8 4 2 3 7 10 11 12 13 13 14 13 13 13 13 12 12 12 12 11 11 9 10 8 6 4 4 6 5 4 4 4 5 4 3 1 3
8 10 9 8 8 7 8 8 6 9 12 12 9 5 2 2 6 9 10 10 11 12 13 13 13 13 13 10 11 10 9 9 9 9 9 7 6 6 5 5 5 4 4 3 4 2 3 4 4
7 9 7 6 5 8 12 13 14 16 17 11 9 9 10 10 9 9 10 10 9 10 12 13 14 13 14 12 11 10 9 9 8 10 10 8 6 5 5 4 4 3 3 3 2 3 4 4 4
11 7 8 9 9 11 13 17 17 20 19 19 18 17 17 16 14 12 10 10 10 11 12 14 15 15 14 13 10 10 10 10 11 10 11 10 7 6 5 4 3 3 3 3 3 3 4 3 4
5 7 8 9 11 12 17 20 20 20 17 18 20 22 21 20 19 16 13 13 13 13 12 13 15 16 15 14 13 12 11 11 11 11 12 11 8 6 6 5 5 5 4 4 4 4 3 3 3
3 7 10 12 13 10 12 18 22 23 21 22 22 22 22 22 21 20 18 15 14 13 11 12 13 15 16 16 15 12 12 13 11 11 13 12 10 9 7 6 5 5 6 5 4 4 3 3 2
4 6 7 5 6 7 9 17 12 11 14 19 20 21 21 22 23 22 21 18 16 14 12 11 10 14 16 16 15 12 12 13 12 12 12 12 12 12 9 7 6 7 6 5 4 3 2 3 4
7 8 9 7 7 7 10 14 9 6 9 13 15 16 17 18 20 21 20 19 17 15 14 12 12 14 15 15 13 12 12 12 11 11 11 12 13 13 11 8 8 8 6 5 4 4 3 4 5
7 9 8 9 5 9 16 20 18 17 18 19 19 18 18 18 19 19 18 17 16 15 13 12 12 13 13 12 11 9 10 9 8 9 10 13 13 13 12 9 9 8 6 5 5 5 5 5 5
7 10 13 12 10 13 21 26 24 22 23 24 23 23 23 23 22 20 18 17 15 14 13 13 12 13 13 12 11 10 9 8 7 7 12 13 14 14 12 9 9 7 6 6 5 4 5 5 5
13 15 16 14 12 12 22 31 28 26 28 27 26 25 25 25 24 23 21 18 17 16 14 13 13 14 15 13 12 8 8 7 8 8 10 12 14 14 11 10 9 8 7 7 6 4 3 4 5
14 16 16 15 15 15 19 23 20 15 18 20 22 23 24 25 25 24 23 22 19 17 16 13 14 15 16 15 12 11 8 7 6 8 8 9 12 13 12 11 10 8 7 7 7 5 4 3 3
11 10 12 13 10 8 7 12 17 11 12 13 16 19 21 21 22 22 23 23 21 19 15 15 15 16 16 17 16 18 12 10 8 9 9 11 12 12 12 12 11 9 8 8 6 5 4 2 2
7 4 7 10 12 13 14 11 18 12 15 15 16 18 18 19 19 20 21 21 20 18 15 15 16 17 17 18 18 17 14 11 12 12 14 12 10 11 12 12 10 9 8 8 6 5 3 2 1
8 4 8 10 8 11 15 15 17 14 14 13 13 14 15 15 16 17 18 18 17 15 15 15 17 17 18 18 18 18 19 19 19 17 15 11 9 9 10 11 10 9 8 7 6 4 3 1 0
9 5 4 5 7 11 7 11 16 14 10 13 13 13 13 13 13 14 14 15 15 16 17 17 19 19 19 18 18 18 20 22 22 19 16 14 11 10 11 9 9 8 8 7 5 3 2 1 2
13 10 8 6 8 10 8 14 14 13 12 14 15 14 13 13 12 13 13 13 15 17 19 19 20 19 19 19 18 18 18 15 14 16 15 13 11 11 11 10 9 9 8 6 4 3 2 2 3
7 11 11 8 12 12 13 15 16 15 17 18 17 14 12 12 13 13 12 12 14 17 19 20 20 20 20 19 19 19 18 16 16 16 14 11 11 11 12 11 9 8 6 5 3 2 1 2 3
10 5 6 7 7 10 15 21 15 14 14 14 13 11 10 12 13 13 11 10 12 14 16 17 19 19 20 20 18 16 17 17 16 15 15 14 14 12 12 10 9 7 5 4 2 1 1 3 4
13 9 10 8 9 8 13 14 8 10 11 12 11 11 11 13 14 13 9 7 10 12 15 17 18 19 19 19 19 19 18 17 16 14 15 14 14 12 11 9 8 6 4 3 2 2 2 4 5
16 17 16 11 13 12 13 18 11 12 10 10 10 11 13 14 13 10 5 7 11 14 16 17 18 18 18 18 19 19 18 17 16 15 15 14 13 11 10 8 7 5 3 2 2 2 4 5 6
Wind_Direction
309 312 295 270 252 238 240 220 216 196 218 293 297 269 258 237 238 57 95 147 138 154 157 157 155 152 149 144 138 135 137 141 143 143 137 128 120 112 103 90 77 70 62 60 60 60 62 65 67
309 301 266 255 247 238 225 207 198 178 326 315 273 241 240 237 15 83 133 149 151 157 159 160 154 153 151 147 142 139 139 140 141 139 135 130 124 118 109 93 77 73 69 65 63 61 59 56 53
274 285 256 236 235 237 226 183 170 4 323 303 277 240 266 42 97 120 131 153 156 160 161 153 154 155 153 151 147 144 142 142 142 139 136 134 132 130 122 103 88 83 80 75 69 63 58 51 46
230 209 222 234 234 232 235 158 144 308 332 318 305 255 199 87 93 101 135 157 159 162 162 154 157 158 157 156 153 150 148 145 143 144 142 142 142 143 135 121 109 100 91 81 74 66 57 45 31
216 219 223 230 235 229 227 232 255 284 303 317 302 275 185 126 113 126 148 161 164 164 164 160 161 162 162 162 160 158 155 153 151 151 151 152 149 153 159 147 131 122 106 85 64 47 36 26 10
198 210 226 231 231 226 233 235 250 262 274 288 273 254 170 122 143 143 152 161 164 165 166 164 165 166 168 169 168 165 164 162 161 162 164 169 163 118 184 164 148 140 131 95 41 26 20 10 1
209 212 230 237 238 233 233 231 245 256 257 257 257 242 171 142 129 146 152 154 160 167 172 171 174 175 173 174 174 173 171 170 170 172 173 158 104 59 62 146 149 153 157 84 24 17 14 18 17
227 219 231 233 237 237 225 219 239 249 254 249 232 237 191 116 138 149 150 155 161 173 180 180 180 183 183 182 179 177 176 174 173 172 160 137 119 98 102 140 135 142 99 33 35 34 42 51 50
209 222 227 226 235 237 212 220 220 239 242 229 222 251 29 104 154 161 165 169 173 182 189 189 188 188 189 187 180 181 180 178 177 174 159 172 193 172 147 103 95 87 64 54 51 56 63 84 88
206 226 231 233 233 226 198 213 217 222 227 224 215 197 86 142 179 190 193 190 189 190 193 195 195 193 192 189 185 190 187 183 193 183 176 188 183 170 148 121 116 113 108 100 80 86 99 343 60
210 232 238 229 229 234 230 233 239 242 236 230 229 229 289 242 219 221 220 213 206 199 194 198 198 197 196 193 193 192 191 188 191 187 180 178 174 171 177 172 161 159 161 141 117 124 61 45 37
216 231 238 239 236 246 250 252 249 245 246 252 268 288 287 273 256 243 238 231 219 211 204 201 199 199 200 199 197 197 194 191 189 186 183 179 175 177 173 178 161 163 141 108 94 70 72 57 42
224 237 239 249 258 260 260 254 256 256 257 263 268 271 270 268 264 257 254 247 234 224 215 207 202 200 199 200 200 200 198 194 191 186 187 184 180 176 166 159 140 117 107 110 94 81 68 51 38
228 242 255 260 260 260 259 260 253 253 254 256 257 258 259 259 259 260 254 249 241 234 225 211 206 203 199 199 199 199 198 195 192 187 189 188 183 171 159 146 130 117 106 98 96 81 68 49 30
231 260 265 255 253 255 263 262 248 251 253 251 251 252 254 255 256 256 254 254 250 243 233 220 213 207 203 202 201 198 195 191 190 188 189 186 178 163 148 137 128 119 115 111 100 83 61 42 15
222 245 255 236 237 236 239 262 263 254 253 252 253 253 253 253 254 253 253 252 252 248 237 228 212 210 206 203 201 198 194 190 188 184 182 178 165 153 141 133 125 125 119 111 98 81 58 29 359
222 241 249 260 242 249 243 267 272 264 261 262 261 260 258 257 255 253 252 251 250 248 241 231 217 212 206 201 199 197 192 187 181 175 168 161 152 146 136 128 126 127 119 110 99 73 41 20 359
234 237 248 255 259 267 265 266 267 266 271 271 270 267 264 260 258 257 254 252 249 245 240 231 216 210 198 191 190 185 181 173 166 160 154 147 141 137 128 123 127 127 122 116 106 87 58 26 351
269 262 264 267 276 286 275 275 273 271 267 265 263 262 261 260 259 257 254 252 246 237 230 224 210 197 184 180 178 176 171 155 140 138 138 137 134 132 126 125 127 127 120 115 107 91 62 33 358
253 262 269 279 277 280 283 281 277 266 260 258 258 258 257 256 254 250 247 244 238 231 222 214 203 190 183 179 174 170 145 126 116 116 120 127 129 129 127 131 129 124 118 108 94 84 74 46 20
246 253 266 276 296 280 287 287 274 259 251 252 252 253 253 251 249 245 240 236 231 226 217 205 195 185 180 170 153 136 121 118 116 120 118 121 123 122 125 129 125 123 117 106 94 85 75 65 46
255 255 261 272 279 281 282 292 287 276 257 251 250 248 247 247 245 244 241 235 227 221 211 200 188 180 174 166 165 164 164 157 153 143 132 125 121 122 126 126 122 118 113 109 102 90 85 63 43
245 251 254 266 272 277 255 261 281 268 258 256 252 253 254 253 250 247 243 239 230 217 203 193 182 176 172 173 172 171 160 143 134 132 129 124 121 123 127 126 121 117 112 110 110 106 96 75 32
227 249 266 259 260 264 254 236 274 272 261 260 257 258 263 266 263 258 252 243 233 214 197 186 179 175 172 173 172 167 153 145 142 142 138 133 130 130 129 126 122 119 117 118 119 118 119 114 132
201 214 255 241 231 250 256 238 257 277 261 254 261 270 279 282 278 269 258 241 222 204 193 185 178 173 171 170 168 161 156 153 151 150 147 144 142 141 139 133 128 122 121 125 130 134 143 178 248
201 208 226 258 261 276 257 248 261 272 260 256 260 269 279 286 288 281 263 240 217 201 191 184 177 170 167 165 160 154 151 149 148 148 147 144 142 140 138 133 128 127 130 134 141 150 177 231 262
197 216 235 267 281 277 261 260 271 256 253 254 256 264 277 291 297 294 274 242 216 199 189 182 173 166 163 158 151 148 148 145 143 142 139 134 133 136 136 133 131 132 136 142 157 182 213 255 272
226 209 202 216 258 266 269 269 267 271 261 253 253 261 282 300 305 305 283 241 211 194 183 175 167 160 155 150 146 144 143 141 140 139 138 136 135 135 136 136 136 138 142 151 174 211 246 273 283
201 210 215 231 242 261 279 276 284 273 267 258 258 274 294 304 309 307 286 226 190 174 168 162 156 150 148 145 141 139 138 138 137 135 134 134 134 136 137 138 140 142 148 162 200 245 267 283 289
220 222 218 232 240 241 262 275 280 269 262 257 273 292 302 304 305 300 260 177 164 161 158 154 149 146 143 139 137 136 136 136 134 132 133 133 133 134 135 137 139 140 150 185 243 270 279 287 292
Height
1521 1522 1522 1523 1520 1516 1512 1508 1507 1507 1506 1507 1507 1506 1502 1501 1501 1506 1506 1504 1506 1508 1510 1511 1513 1515 1516 1517 1518 1518 1519 1519 1520 1521 1522 1523 1523 1524 1524 1523 1523 1522 1522 1523 1523 1523 1523 1523 1524
1520 1521 1523 1522 1517 1515 1510 1505 1507 1507 1508 1508 1506 1506 1504 1502 1504 1505 1504 1504 1506 1508 1510 1512 1513 1515 1516 1517 1518 1518 1518 1518 1519 1521 1522 1523 1524 1524 1525 1524 1523 1523 1523 1523 1523 1523 1524 1524 1524
1519 1521 1523 1517 1513 1510 1506 1504 1505 1508 1508 1507 1505 1505 1504 1503 1505 1505 1505 1505 1506 1508 1511 1512 1514 1515 1517 1518 1518 1519 1519 1519 1519 1521 1522 1523 1524 1525 1525 1525 1524 1524 1523 1523 1523 1523 1524 1524 1524
1519 1521 1520 1515 1510 1505 1504 1504 1507 1507 1506 1506 1505 1503 1504 1504 1504 1505 1504 1505 1507 1509 1511 1512 1514 1515 1517 1518 1519 1519 1519 1519 1520 1521 1522 1524 1525 1526 1526 1526 1526 1525 1524 1524 1524 1524 1524 1524 1523
1517 1517 1514 1511 1505 1503 1504 1507 1509 1507 1505 1505 1505 1502 1503 1504 1503 1504 1504 1505 1507 1509 1511 1512 1514 1515 1517 1518 1519 1519 1519 1520 1520 1521 1522 1524 1525 1526 1527 1527 1527 1526 1525 1525 1525 1525 1525 1525 1524
1515 1512 1510 1506 1501 1502 1504 1506 1507 1506 1505 1505 1505 1503 1502 1503 1503 1504 1504 1505 1507 1509 1510 1512 1513 1515 1516 1518 1519 1519 1519 1520 1520 1521 1522 1524 1525 1526 1527 1527 1527 1527 1527 1526 1526 1526 1526 1526 1526
1511 1507 1503 1500 1499 1500 1503 1505 1505 1503 1503 1504 1504 1502 1502 1504 1503 1503 1504 1505 1506 1508 1510 1512 1513 1515 1516 1518 1519 1519 1520 1520 1521 1521 1522 1523 1525 1526 1527 1527 1528 1527 1527 1527 1527 1527 1527 1527 1526
1508 1505 1501 1499 1499 1498 1501 1503 1503 1503 1502 1503 1504 1501 1501 1504 1502 1503 1504 1505 1506 1507 1509 1511 1513 1515 1516 1517 1518 1519 1520 1520 1521 1521 1522 1523 1524 1526 1526 1527 1527 1528 1527 1527 1527 1527 1527 1527 1527
1507 1505 1498 1496 1498 1496 1500 1501 1501 1502 1502 1501 1501 1502 1502 1501 1501 1502 1503 1504 1505 1506 1508 1510 1512 1514 1516 1517 1518 1519 1519 1520 1521 1521 1522 1523 1525 1526 1526 1527 1527 1528 1528 1528 1527 1527 1527 1527 1526
1504 1499 1494 1494 1497 1497 1499 1499 1500 1500 1499 1499 1499 1500 1499 1500 1501 1502 1503 1504 1504 1505 1507 1508 1510 1512 1514 1515 1517 1518 1519 1519 1520 1522 1521 1523 1524 1525 1526 1526 1527 1527 1527 1527 1527 1527 1527 1526 1526
1500 1496 1494 1498 1499 1499 1499 1499 1499 1498 1496 1496 1497 1498 1499 1499 1500 1501 1502 1504 1504 1505 1505 1506 1508 1510 1511 1513 1515 1516 1517 1518 1519 1520 1521 1522 1523 1524 1525 1526 1527 1527 1527 1527 1527 1526 1526 1525 1524
1500 1498 1499 1498 1499 1499 1498 1497 1497 1496 1495 1495 1496 1496 1496 1497 1498 1499 1500 1501 1502 1503 1504 1505 1506 1507 1508 1510 1511 1513 1514 1516 1517 1518 1519 1520 1522 1523 1525 1526 1526 1527 1527 1526 1526 1525 1524 1523 1522
1498 1497 1499 1499 1499 1499 1498 1496 1495 1492 1493 1493 1493 1493 1493 1493 1494 1496 1496 1497 1499 1500 1501 1502 1503 1504 1505 1507 1508 1510 1511 1513 1515 1516 1517 1519 1521 1522 1523 1525 1525 1525 1525 1525 1524 1524 1523 1522 1521
1497 1497 1497 1497 1497 1496 1495 1491 1492 1486 1489 1489 1489 1488 1489 1489 1490 1491 1492 1493 1495 1496 1498 1499 1500 1501 1502 1503 1504 1506 1508 1510 1512 1513 1515 1517 1519 1520 1522 1523 1524 1524 1524 1523 1523 1522 1521 1520 1519
1498 1497 1494 1492 1493 1491 1492 1484 1482 1481 1483 1483 1482 1483 1483 1484 1485 1486 1487 1489 1490 1492 1493 1494 1495 1497 1498 1499 1500 1502 1504 1506 1508 1510 1513 1515 1517 1518 1520 1521 1522 1522 1522 1522 1522 1521 1520 1518 1516
1496 1494 1490 1487 1489 1488 1491 1476 1473 1476 1477 1476 1476 1476 1477 1477 1478 1480 1482 1483 1485 1486 1487 1489 1490 1492 1493 1494 1496 1497 1500 1502 1504 1507 1509 1512 1514 1516 1518 1519 1520 1520 1520 1520 1520 1519 1518 1516 1514
1493 1488 1485 1485 1485 1484 1483 1473 1471 1473 1473 1472 1471 1471 1471 1471 1472 1473 1475 1476 1478 1479 1481 1482 1484 1486 1487 1489 1491 1493 1495 1498 1500 1503 1505 1508 1511 1513 1515 1516 1517 1518 1518 1518 1518 1517 1516 1514 1512
1483 1484 1485 1484 1482 1483 1478 1470 1469 1470 1470 1468 1467 1466 1466 1465 1465 1467 1468 1469 1470 1472 1474 1476 1478 1480 1481 1483 1485 1487 1490 1492 1495 1498 1501 1504 1507 1510 1512 1514 1515 1516 1516 1516 1516 1515 1514 1512 1510
1487 1486 1484 1482 1482 1483 1473 1464 1462 1463 1462 1460 1459 1459 1458 1457 1458 1459 1460 1461 1462 1464 1466 1469 1471 1473 1474 1476 1478 1480 1483 1486 1489 1493 1496 1500 1503 1506 1509 1511 1512 1513 1514 1514 1514 1513 1512 1509 1507
1489 1488 1485 1483 1482 1482 1470 1457 1452 1452 1450 1450 1450 1449 1448 1448 1449 1450 1451 1452 1454 1456 1458 1461 1464 1466 1467 1469 1472 1474 1477 1480 1484 1488 1492 1496 1500 1503 1506 1508 1509 1511 1512 1512 1512 1511 1509 1507 1505
1488 1487 1484 1483 1481 1477 1472 1447 1433 1432 1436 1439 1440 1439 1438 1437 1437 1439 1441 1443 1445 1447 1450 1453 1456 1459 1461 1463 1465 1468 1471 1475 1480 1484 1488 1492 1496 1499 1502 1505 1507 1508 1509 1509 1509 1508 1506 1505 1503
1485 1483 1485 1485 1485 1476 1473 1458 1425 1427 1430 1432 1432 1430 1428 1427 1428 1428 1430 1432 1435 1438 1442 1446 1449 1451 1454 1456 1459 1462 1465 1470 1475 1480 1485 1489 1493 1496 1500 1502 1504 1506 1507 1507 1506 1505 1504 1502 1500
1482 1484 1485 1483 1482 1479 1468 1470 1427 1423 1424 1423 1423 1422 1420 1420 1420 1420 1421 1423 1426 1430 1433 1437 1441 1444 1447 1450 1454 1458 1462 1466 1471 1477 1481 1486 1490 1494 1497 1500 1502 1503 1504 1504 1503 1502 1501 1499 1498
1483 1486 1484 1482 1482 1475 1451 1454 1423 1409 1411 1413 1414 1415 1415 1415 1414 1414 1414 1416 1419 1421 1424 1429 1433 1437 1441 1445 1449 1453 1456 1461 1467 1473 1478 1483 1487 1491 1495 1498 1500 1500 1501 1500 1500 1499 1497 1496 1495
1484 1486 1480 1474 1473 1457 1440 1441 1418 1405 1409 1409 1409 1409 1409 1409 1409 1407 1407 1408 1410 1412 1416 1421 1426 1430 1434 1439 1444 1448 1453 1459 1465 1470 1475 1480 1484 1489 1492 1495 1497 1498 1498 1497 1496 1495 1494 1492 1491
1477 1478 1474 1465 1449 1436 1435 1431 1408 1403 1406 1407 1407 1406 1405 1404 1403 1402 1400 1401 1402 1404 1408 1413 1419 1424 1429 1433 1439 1444 1450 1456 1462 1468 1473 1478 1482 1487 1490 1493 1494 1495 1495 1494 1493 1492 1491 1489 1487
1474 1474 1468 1468 1458 1453 1430 1412 1402 1400 1402 1402 1401 1401 1400 1399 1398 1396 1394 1394 1395 1397 1401 1407 1412 1418 1423 1429 1434 1440 1447 1453 1459 1465 1471 1476 1481 1485 1488 1490 1492 1492 1492 1491 1490 1489 1487 1485 1483
1467 1467 1471 1472 1460 1440 1415 1403 1394 1388 1391 1393 1395 1395 1395 1394 1393 1390 1389 1388 1390 1393 1397 1402 1408 1413 1419 1425 1431 1438 1444 1451 1458 1464 1470 1475 1480 1483 1486 1488 1489 1489 1489 1488 1487 1485 1483 1482 1479
1466 1469 1466 1459 1453 1441 1418 1395 1383 1386 1387 1388 1390 1390 1390 1390 1388 1386 1384 1384 1385 1389 1393 1398 1404 1410 1416 1423 1429 1436 1443 1450 1457 1463 1469 1474 1478 1481 1484 1485 1486 1486 1485 1485 1483 1482 1480 1477 1475
1452 1452 1455 1455 1444 1436 1423 1395 1384 1384 1384 1386 1387 1388 1387 1385 1383 1381 1380 1380 1382 1386 1390 1396 1401 1408 1415 1421 1428 1436 1443 1450 1456 1463 1468 1473 1477 1479 1481 1483 1483 1483 1482 1481 1480 1478 1475 1473 1470